| time (UTC) | temp F | wind direction | speed knots | gust knots | rain 1hr in | rain 24hr in | rain mn in | humidity % | barometer mb |
| 20260906234542 | 80 | 192 | 2.6 | 2.6 | 0.00 | 0.00 | 0.00 | 39 | 1014.1 |
| 20260906234036 | 80 | 205 | 1.7 | 1.7 | 0.00 | 0.00 | 0.00 | 40 | 1014.0 |
| 20260906233535 | 80 | 219 | 1.7 | 1.7 | 0.00 | 0.00 | 0.00 | 40 | 1013.8 |
| 20260906233034 | 80 | 198 | 1.7 | 1.7 | 0.00 | 0.00 | 0.00 | 40 | 1014.3 |
| 20260906232530 | 80 | 194 | 2.6 | 2.6 | 0.00 | 0.00 | 0.00 | 39 | 1014.1 |
| 20260906232025 | 80 | 225 | 4.3 | 5.2 | 0.00 | 0.00 | 0.00 | 39 | 1014.1 |
| 20260906231525 | 80 | 208 | 2.6 | 2.6 | 0.00 | 0.00 | 0.00 | 39 | 1014.1 |
| 20260906231020 | 80 | 185 | 5.2 | 6.1 | 0.00 | 0.00 | 0.00 | 38 | 1014.4 |
| 20260906230519 | 80 | 225 | 5.2 | 6.1 | 0.00 | 0.00 | 0.00 | 38 | 1014.3 |
| 20260906230019 | 81 | 203 | 3.5 | 4.3 | 0.00 | 0.00 | 0.00 | 39 | 1014.4 |
| 20260906225513 | 81 | 202 | 4.3 | 5.2 | 0.00 | 0.00 | 0.00 | 37 | 1014.6 |
| 20260906225009 | 81 | 192 | 4.3 | 4.3 | 0.00 | 0.00 | 0.00 | 38 | 1014.5 |
| 20260906224504 | 82 | 218 | 5.2 | 7.0 | 0.00 | 0.00 | 0.00 | 36 | 1014.5 |
| 20260906224000 | 81 | 222 | 3.5 | 4.3 | 0.00 | 0.00 | 0.00 | 38 | 1014.4 |
| 20260906223456 | 82 | 227 | 8.7 | 9.6 | 0.00 | 0.00 | 0.00 | 37 | 1014.5 |
| 20260906222954 | 82 | 217 | 5.2 | 6.1 | 0.00 | 0.00 | 0.00 | 37 | 1014.5 |
| 20260906222449 | 82 | 229 | 8.7 | 9.6 | 0.00 | 0.00 | 0.00 | 37 | 1014.4 |
| 20260906221947 | 82 | 244 | 7.8 | 7.8 | 0.00 | 0.00 | 0.00 | 37 | 1014.6 |
| 20260906221446 | 83 | 229 | 7.8 | 9.6 | 0.00 | 0.00 | 0.00 | 36 | 1014.5 |
| 20260906220942 | 83 | 219 | 7.8 | 8.7 | 0.00 | 0.00 | 0.00 | 35 | 1014.4 |
| 20260906220437 | 83 | 209 | 10.4 | 13.9 | 0.00 | 0.00 | 0.00 | 36 | 1014.5 |
| 20260906215937 | 84 | 216 | 9.6 | 11.3 | 0.00 | 0.00 | 0.00 | 36 | 1014.6 |
| 20260906215437 | 83 | 223 | 10.4 | 14.8 | 0.00 | 0.00 | 0.00 | 36 | 1014.8 |
| 20260906214935 | 84 | 216 | 8.7 | 9.6 | 0.00 | 0.00 | 0.00 | 36 | 1014.8 |
| 20260906214434 | 84 | 247 | 6.1 | 7.0 | 0.00 | 0.00 | 0.00 | 36 | 1014.6 |
| 20260906213933 | 83 | 222 | 7.8 | 8.7 | 0.00 | 0.00 | 0.00 | 37 | 1014.5 |
| 20260906213428 | 84 | 268 | 6.1 | 7.0 | 0.00 | 0.00 | 0.00 | 35 | 1014.9 |
| 20260906212926 | 82 | 253 | 10.4 | 13.0 | 0.00 | 0.00 | 0.00 | 37 | 1014.9 |
| 20260906212421 | 82 | 231 | 5.2 | 5.2 | 0.00 | 0.00 | 0.00 | 37 | 1014.8 |
| 20260906211921 | 82 | 215 | 4.3 | 5.2 | 0.00 | 0.00 | 0.00 | 36 | 1014.8 |
| 20260906211416 | 83 | 197 | 7.0 | 7.8 | 0.00 | 0.00 | 0.00 | 36 | 1015.0 |
| 20260906210910 | 83 | 248 | 8.7 | 13.0 | 0.00 | 0.00 | 0.00 | 35 | 1014.8 |
| 20260906210407 | 82 | 217 | 7.0 | 7.8 | 0.00 | 0.00 | 0.00 | 35 | 1015.0 |
| 20260906205901 | 82 | 179 | 7.0 | 9.6 | 0.00 | 0.00 | 0.00 | 35 | 1014.9 |
| 20260906205357 | 83 | 214 | 6.1 | 7.0 | 0.00 | 0.00 | 0.00 | 35 | 1015.2 |
| 20260906204853 | 83 | 212 | 7.8 | 9.6 | 0.00 | 0.00 | 0.00 | 34 | 1015.1 |
| 20260906204351 | 83 | 205 | 7.0 | 7.8 | 0.00 | 0.00 | 0.00 | 34 | 1015.2 |
| 20260906203851 | 83 | 207 | 4.3 | 6.1 | 0.00 | 0.00 | 0.00 | 35 | 1015.2 |
| 20260906203347 | 81 | 237 | 1.7 | 1.7 | 0.00 | 0.00 | 0.00 | 35 | 1015.3 |
| 20260906202844 | 81 | 218 | 0.9 | 0.9 | 0.00 | 0.00 | 0.00 | 34 | 1015.4 |
| 20260906202343 | 81 | 199 | 3.5 | 4.3 | 0.00 | 0.00 | 0.00 | 36 | 1015.6 |
| 20260906201843 | 82 | 228 | 7.0 | 7.8 | 0.00 | 0.00 | 0.00 | 34 | 1015.7 |
| 20260906201338 | 81 | 190 | 7.0 | 7.8 | 0.00 | 0.00 | 0.00 | 35 | 1015.6 |
| 20260906200834 | 81 | 238 | 4.3 | 6.1 | 0.00 | 0.00 | 0.00 | 35 | 1015.6 |
| 20260906200330 | 80 | 243 | 4.3 | 5.2 | 0.00 | 0.00 | 0.00 | 35 | 1015.6 |
| 20260906195829 | 81 | 247 | 7.8 | 8.7 | 0.00 | 0.00 | 0.00 | 35 | 1015.7 |
| 20260906195326 | 80 | 220 | 8.7 | 9.6 | 0.00 | 0.00 | 0.00 | 35 | 1016.0 |
| 20260906194822 | 80 | 239 | 7.0 | 8.7 | 0.00 | 0.00 | 0.00 | 35 | 1016.1 |
| 20260906194317 | 80 | 240 | 7.0 | 7.8 | 0.00 | 0.00 | 0.00 | 35 | 1016.1 |
| 20260906193812 | 80 | 212 | 10.4 | 12.2 | 0.00 | 0.00 | 0.00 | 35 | 1016.1 |
| 20260906193307 | 81 | 213 | 7.0 | 7.8 | 0.00 | 0.00 | 0.00 | 35 | 1016.0 |
| 20260906192758 | 81 | 209 | 6.1 | 7.0 | 0.00 | 0.00 | 0.00 | 35 | 1015.9 |
| 20260906192257 | 82 | 209 | 8.7 | 9.6 | 0.00 | 0.00 | 0.00 | 34 | 1015.9 |
| 20260906191756 | 82 | 212 | 7.0 | 8.7 | 0.00 | 0.00 | 0.00 | 33 | 1016.1 |
| 20260906191252 | 82 | 226 | 10.4 | 11.3 | 0.00 | 0.00 | 0.00 | 33 | 1016.0 |
| 20260906190751 | 82 | 217 | 7.0 | 7.8 | 0.00 | 0.00 | 0.00 | 33 | 1016.2 |
| 20260906190245 | 81 | 210 | 9.6 | 11.3 | 0.00 | 0.00 | 0.00 | 32 | 1016.2 |
| 20260906185744 | 82 | 228 | 6.1 | 7.8 | 0.00 | 0.00 | 0.00 | 32 | 1016.4 |
| 20260906185244 | 82 | 236 | 9.6 | 11.3 | 0.00 | 0.00 | 0.00 | 33 | 1016.4 |
| 20260906184739 | 83 | 191 | 10.4 | 12.2 | 0.00 | 0.00 | 0.00 | 33 | 1016.5 |
| 20260906184234 | 82 | 211 | 4.3 | 6.1 | 0.00 | 0.00 | 0.00 | 32 | 1016.4 |
| 20260906183729 | 82 | 261 | 9.6 | 11.3 | 0.00 | 0.00 | 0.00 | 31 | 1016.5 |
| 20260906183227 | 81 | 233 | 10.4 | 11.3 | 0.00 | 0.00 | 0.00 | 32 | 1016.6 |
| 20260906182726 | 81 | 225 | 8.7 | 11.3 | 0.00 | 0.00 | 0.00 | 32 | 1016.5 |
| 20260906182222 | 81 | 212 | 8.7 | 9.6 | 0.00 | 0.00 | 0.00 | 33 | 1016.7 |
| 20260906181717 | 81 | 202 | 8.7 | 9.6 | 0.00 | 0.00 | 0.00 | 33 | 1016.7 |
| 20260906181214 | 81 | 296 | 6.1 | 9.6 | 0.00 | 0.00 | 0.00 | 32 | 1016.7 |
| 20260906180713 | 82 | 270 | 12.2 | 14.8 | 0.00 | 0.00 | 0.00 | 32 | 1017.0 |
| 20260906180208 | 81 | 241 | 7.0 | 7.8 | 0.00 | 0.00 | 0.00 | 32 | 1017.2 |
| 20260906175706 | 80 | 207 | 7.8 | 11.3 | 0.00 | 0.00 | 0.00 | 32 | 1017.4 |
| 20260906175201 | 80 | 247 | 10.4 | 13.0 | 0.00 | 0.00 | 0.00 | 32 | 1017.6 |
| 20260906174700 | 80 | 272 | 8.7 | 12.2 | 0.00 | 0.00 | 0.00 | 31 | 1017.4 |
| 20260906174154 | 80 | 225 | 7.8 | 8.7 | 0.00 | 0.00 | 0.00 | 32 | 1017.5 |
| 20260906173650 | 80 | 228 | 7.8 | 8.7 | 0.00 | 0.00 | 0.00 | 32 | 1017.5 |
| 20260906173145 | 80 | 224 | 8.7 | 8.7 | 0.00 | 0.00 | 0.00 | 33 | 1017.6 |
| 20260906172645 | 80 | 214 | 8.7 | 9.6 | 0.00 | 0.00 | 0.00 | 33 | 1017.5 |
| 20260906172140 | 79 | 233 | 12.2 | 14.8 | 0.00 | 0.00 | 0.00 | 32 | 1017.6 |
| 20260906171640 | 79 | 210 | 10.4 | 13.0 | 0.00 | 0.00 | 0.00 | 32 | 1017.5 |
| 20260906171135 | 79 | 199 | 12.2 | 13.0 | 0.00 | 0.00 | 0.00 | 33 | 1017.7 |
| 20260906170632 | 79 | 225 | 10.4 | 12.2 | 0.00 | 0.00 | 0.00 | 33 | 1017.6 |
| 20260906170131 | 79 | 214 | 10.4 | 12.2 | 0.00 | 0.00 | 0.00 | 34 | 1017.7 |
| 20260906165627 | 79 | 226 | 13.0 | 15.6 | 0.00 | 0.00 | 0.00 | 34 | 1017.7 |
| 20260906165123 | 79 | 223 | 11.3 | 15.6 | 0.00 | 0.00 | 0.00 | 33 | 1018.0 |
| 20260906164621 | 79 | 235 | 7.0 | 9.6 | 0.00 | 0.00 | 0.00 | 36 | 1017.4 |
| 20260906164117 | 78 | 195 | 11.3 | 13.0 | 0.00 | 0.00 | 0.00 | 35 | 1017.5 |
| 20260906163613 | 78 | 194 | 13.9 | 18.2 | 0.00 | 0.00 | 0.00 | 35 | 1017.7 |
| 20260906163109 | 78 | 231 | 7.8 | 9.6 | 0.00 | 0.00 | 0.00 | 37 | 1018.0 |
| 20260906162606 | 78 | 195 | 2.6 | 4.3 | 0.00 | 0.00 | 0.00 | 40 | 1017.8 |
| 20260906162101 | 77 | 206 | 3.5 | 4.3 | 0.00 | 0.00 | 0.00 | 40 | 1018.2 |
| 20260906161601 | 76 | 172 | 1.7 | 1.7 | 0.00 | 0.00 | 0.00 | 39 | 1018.0 |
| 20260906161059 | 77 | 209 | 1.7 | 1.7 | 0.00 | 0.00 | 0.00 | 39 | 1018.1 |
| 20260906160558 | 76 | 201 | 1.7 | 1.7 | 0.00 | 0.00 | 0.00 | 40 | 1018.0 |
| 20260906160057 | 76 | 214 | 0.9 | 1.7 | 0.00 | 0.00 | 0.00 | 40 | 1018.0 |
| 20260906155555 | 75 | 223 | 0.0 | 0.9 | 0.00 | 0.00 | 0.00 | 38 | 1018.2 |
| 20260906155051 | 74 | 203 | 0.0 | 0.0 | 0.00 | 0.00 | 0.00 | 42 | 1018.0 |
| 20260906154546 | 73 | 225 | 0.0 | 0.0 | 0.00 | 0.00 | 0.00 | 42 | 1018.0 |
| 20260906154045 | 71 | 220 | 0.0 | 0.0 | 0.00 | 0.00 | 0.00 | 45 | 1018.1 |
| 20260906153544 | 70 | 206 | 1.7 | 1.7 | 0.00 | 0.00 | 0.00 | 45 | 1018.1 |
| 20260906153040 | 69 | 191 | 1.7 | 1.7 | 0.00 | 0.00 | 0.00 | 46 | 1018.1 |
| 20260906152539 | 68 | 211 | 0.9 | 0.9 | 0.00 | 0.00 | 0.00 | 46 | 1018.2 |
| 20260906152038 | 68 | 199 | 0.9 | 1.7 | 0.00 | 0.00 | 0.00 | 47 | 1018.1 |
| 20260906151534 | 67 | 218 | 1.7 | 1.7 | 0.00 | 0.00 | 0.00 | 47 | 1018.1 |
| 20260906151030 | 67 | 254 | 1.7 | 1.7 | 0.00 | 0.00 | 0.00 | 49 | 1018.3 |
| 20260906150525 | 66 | 248 | 1.7 | 1.7 | 0.00 | 0.00 | 0.00 | 50 | 1018.2 |
| 20260906150020 | 66 | 229 | 0.9 | 1.7 | 0.00 | 0.00 | 0.00 | 51 | 1018.1 |
| 20260906145518 | 65 | 247 | 0.0 | 0.0 | 0.00 | 0.00 | 0.00 | 50 | 1018.1 |
| 20260906145014 | 64 | 243 | 0.9 | 1.7 | 0.00 | 0.00 | 0.00 | 50 | 1018.1 |
| 20260906144509 | 63 | 234 | 0.9 | 0.9 | 0.00 | 0.00 | 0.00 | 53 | 1017.7 |
| 20260906144004 | 63 | 219 | 1.7 | 1.7 | 0.00 | 0.00 | 0.00 | 55 | 1017.8 |
| 20260906143459 | 63 | 231 | 3.5 | 4.3 | 0.00 | 0.00 | 0.00 | 53 | 1017.8 |
| 20260906142955 | 62 | 236 | 0.0 | 0.0 | 0.00 | 0.00 | 0.00 | 52 | 1017.8 |
| 20260906142454 | 61 | 205 | 0.0 | 0.0 | 0.00 | 0.00 | 0.00 | 54 | 1017.8 |
| 20260906141949 | 62 | 212 | 3.5 | 4.3 | 0.00 | 0.00 | 0.00 | 53 | 1017.8 |
| 20260906141449 | 61 | 226 | 0.0 | 0.0 | 0.00 | 0.00 | 0.00 | 53 | 1017.8 |
| 20260906140944 | 61 | 210 | 0.0 | 0.0 | 0.00 | 0.00 | 0.00 | 53 | 1018.0 |
| 20260906140438 | 60 | 269 | 0.0 | 0.0 | 0.00 | 0.00 | 0.00 | 53 | 1017.7 |
| 20260906135937 | 59 | 234 | 0.0 | 0.0 | 0.00 | 0.00 | 0.00 | 55 | 1017.8 |
| 20260906135435 | 58 | 225 | 0.9 | 1.7 | 0.00 | 0.00 | 0.00 | 57 | 1017.6 |
| 20260906134931 | 58 | 216 | 2.6 | 2.6 | 0.00 | 0.00 | 0.00 | 58 | 1017.7 |
| 20260906134426 | 58 | 217 | 0.0 | 0.0 | 0.00 | 0.00 | 0.00 | 58 | 1017.6 |
| 20260906133921 | 57 | 211 | 1.7 | 1.7 | 0.00 | 0.00 | 0.00 | 58 | 1017.3 |
| 20260906133417 | 56 | 165 | 0.9 | 0.9 | 0.00 | 0.00 | 0.00 | 59 | 1017.4 |
| 20260906132913 | 56 | 262 | 0.0 | 0.0 | 0.00 | 0.00 | 0.00 | 59 | 1017.5 |
| 20260906132408 | 55 | 208 | 1.7 | 1.7 | 0.00 | 0.00 | 0.00 | 62 | 1017.6 |
| 20260906131903 | 55 | 222 | 0.9 | 0.9 | 0.00 | 0.00 | 0.00 | 61 | 1017.3 |
| 20260906131359 | 53 | 242 | 1.7 | 1.7 | 0.00 | 0.00 | 0.00 | 65 | 1017.4 |
| 20260906130855 | 54 | 216 | 0.0 | 0.0 | 0.00 | 0.00 | 0.00 | 66 | 1017.2 |
| 20260906130354 | 54 | 229 | 0.0 | 0.0 | 0.00 | 0.00 | 0.00 | 66 | 1017.3 |
| 20260906125853 | 54 | 219 | 0.9 | 0.9 | 0.00 | 0.00 | 0.00 | 65 | 1017.3 |
| 20260906125350 | 53 | 236 | 0.9 | 1.7 | 0.00 | 0.00 | 0.00 | 66 | 1017.3 |
| 20260906124845 | 53 | 232 | 0.9 | 0.9 | 0.00 | 0.00 | 0.00 | 67 | 1017.4 |
| 20260906124341 | 53 | 220 | 0.9 | 2.6 | 0.00 | 0.00 | 0.00 | 67 | 1017.3 |
| 20260906123840 | 54 | 221 | 0.9 | 0.9 | 0.00 | 0.00 | 0.00 | 67 | 1017.0 |
| 20260906123335 | 54 | 247 | 0.0 | 0.0 | 0.00 | 0.00 | 0.00 | 65 | 1016.9 |
| 20260906122834 | 54 | 250 | 0.9 | 0.9 | 0.00 | 0.00 | 0.00 | 65 | 1016.9 |
| 20260906122330 | 54 | 223 | 0.0 | 0.0 | 0.00 | 0.00 | 0.00 | 64 | 1016.8 |
| 20260906121827 | 55 | 229 | 1.7 | 1.7 | 0.00 | 0.00 | 0.00 | 63 | 1016.9 |
| 20260906121322 | 55 | 236 | 1.7 | 2.6 | 0.00 | 0.00 | 0.00 | 63 | 1017.2 |
| 20260906120818 | 56 | 247 | 0.0 | 0.0 | 0.00 | 0.00 | 0.00 | 57 | 1017.0 |
| 20260906120314 | 57 | 236 | 1.7 | 1.7 | 0.00 | 0.00 | 0.00 | 57 | 1017.2 |
| 20260906115810 | 58 | 219 | 0.9 | 0.9 | 0.00 | 0.00 | 0.00 | 53 | 1017.2 |
| 20260906115306 | 58 | 260 | 0.0 | 0.0 | 0.00 | 0.00 | 0.00 | 52 | 1016.9 |
| 20260906114805 | 58 | 73 | 3.5 | 4.3 | 0.00 | 0.00 | 0.00 | 49 | 1017.0 |
| 20260906114300 | 56 | 215 | 0.9 | 0.9 | 0.00 | 0.00 | 0.00 | 51 | 1017.0 |
| 20260906113755 | 56 | 209 | 0.9 | 1.7 | 0.00 | 0.00 | 0.00 | 57 | 1017.0 |
| 20260906113254 | 56 | 209 | 0.0 | 0.0 | 0.00 | 0.00 | 0.00 | 60 | 1017.0 |
| 20260906112754 | 57 | 236 | 1.7 | 1.7 | 0.00 | 0.00 | 0.00 | 58 | 1017.0 |
| 20260906112251 | 57 | 185 | 2.6 | 2.6 | 0.00 | 0.00 | 0.00 | 58 | 1017.0 |
| 20260906111744 | 56 | 203 | 0.0 | 0.0 | 0.00 | 0.00 | 0.00 | 59 | 1017.0 |
| 20260906111244 | 55 | 206 | 0.9 | 1.7 | 0.00 | 0.00 | 0.00 | 59 | 1016.9 |
| 20260906110739 | 55 | 220 | 0.0 | 0.9 | 0.00 | 0.00 | 0.00 | 62 | 1017.2 |
| 20260906110235 | 55 | 229 | 0.0 | 0.0 | 0.00 | 0.00 | 0.00 | 62 | 1017.0 |
| 20260906105733 | 56 | 232 | 0.0 | 0.9 | 0.00 | 0.00 | 0.00 | 62 | 1017.2 |
| 20260906105231 | 55 | 187 | 0.9 | 0.9 | 0.00 | 0.00 | 0.00 | 63 | 1017.0 |
| 20260906104731 | 54 | 220 | 0.0 | 0.0 | 0.00 | 0.00 | 0.00 | 64 | 1016.8 |
| 20260906104230 | 55 | 222 | 0.0 | 0.0 | 0.00 | 0.00 | 0.00 | 64 | 1016.9 |
| 20260906103727 | 55 | 222 | 0.0 | 0.0 | 0.00 | 0.00 | 0.00 | 63 | 1016.7 |
| 20260906103222 | 55 | 229 | 0.0 | 0.0 | 0.00 | 0.00 | 0.00 | 62 | 1016.7 |
| 20260906102718 | 56 | 236 | 0.0 | 0.0 | 0.00 | 0.00 | 0.00 | 61 | 1016.5 |
| 20260906102217 | 57 | 229 | 0.0 | 0.0 | 0.00 | 0.00 | 0.00 | 60 | 1016.9 |
| 20260906101712 | 57 | 219 | 0.0 | 0.0 | 0.00 | 0.00 | 0.00 | 58 | 1016.7 |
| 20260906101207 | 56 | 285 | 1.7 | 1.7 | 0.00 | 0.00 | 0.00 | 59 | 1016.9 |
| 20260906100703 | 57 | 207 | 0.9 | 0.9 | 0.00 | 0.00 | 0.00 | 59 | 1016.9 |
| 20260906100203 | 56 | 172 | 0.9 | 0.9 | 0.00 | 0.00 | 0.00 | 58 | 1016.6 |
| 20260906095657 | 56 | 167 | 0.9 | 0.9 | 0.00 | 0.00 | 0.00 | 61 | 1016.6 |
| 20260906095153 | 56 | 170 | 0.9 | 1.7 | 0.00 | 0.00 | 0.00 | 61 | 1016.9 |
| 20260906094651 | 56 | 221 | 0.9 | 0.9 | 0.00 | 0.00 | 0.00 | 60 | 1016.6 |
| 20260906094148 | 56 | 226 | 0.0 | 0.9 | 0.00 | 0.00 | 0.00 | 60 | 1016.5 |
| 20260906093644 | 57 | 216 | 0.0 | 0.0 | 0.00 | 0.00 | 0.00 | 62 | 1016.7 |
| 20260906093144 | 56 | 186 | 1.7 | 1.7 | 0.00 | 0.00 | 0.00 | 63 | 1016.6 |
| 20260906092638 | 57 | 206 | 0.9 | 0.9 | 0.00 | 0.00 | 0.00 | 61 | 1016.6 |
| 20260906092138 | 56 | 193 | 0.9 | 0.9 | 0.00 | 0.00 | 0.00 | 61 | 1016.6 |
| 20260906091635 | 56 | 233 | 0.0 | 0.0 | 0.00 | 0.00 | 0.00 | 62 | 1016.5 |
| 20260906091131 | 57 | 226 | 0.0 | 0.0 | 0.00 | 0.00 | 0.00 | 61 | 1016.5 |
| 20260906090626 | 58 | 246 | 0.9 | 0.9 | 0.00 | 0.00 | 0.00 | 60 | 1016.2 |
| 20260906090126 | 58 | 223 | 0.0 | 0.0 | 0.00 | 0.00 | 0.00 | 58 | 1016.4 |
| 20260906085625 | 58 | 284 | 0.0 | 0.0 | 0.00 | 0.00 | 0.00 | 59 | 1016.4 |
| 20260906085120 | 57 | 211 | 0.0 | 0.0 | 0.00 | 0.00 | 0.00 | 60 | 1016.2 |
| 20260906084614 | 58 | 213 | 0.0 | 0.0 | 0.00 | 0.00 | 0.00 | 62 | 1016.2 |
| 20260906084113 | 57 | 229 | 0.0 | 0.0 | 0.00 | 0.00 | 0.00 | 61 | 1016.2 |
| 20260906083609 | 58 | 222 | 0.0 | 0.0 | 0.00 | 0.00 | 0.00 | 61 | 1016.2 |
| 20260906083109 | 59 | 220 | 0.0 | 0.0 | 0.00 | 0.00 | 0.00 | 61 | 1016.5 |
| 20260906082604 | 58 | 263 | 0.9 | 1.7 | 0.00 | 0.00 | 0.00 | 61 | 1016.6 |
| 20260906082100 | 58 | 233 | 0.0 | 0.0 | 0.00 | 0.00 | 0.00 | 60 | 1016.1 |
| 20260906081555 | 58 | 243 | 0.9 | 0.9 | 0.00 | 0.00 | 0.00 | 61 | 1016.2 |
| 20260906081050 | 58 | 184 | 0.9 | 0.9 | 0.00 | 0.00 | 0.00 | 62 | 1016.2 |
| 20260906080548 | 58 | 173 | 0.9 | 0.9 | 0.00 | 0.00 | 0.00 | 61 | 1016.5 |
| 20260906080043 | 58 | 184 | 0.9 | 0.9 | 0.00 | 0.00 | 0.00 | 60 | 1016.4 |
| 20260906075543 | 59 | 227 | 0.0 | 0.0 | 0.00 | 0.00 | 0.00 | 59 | 1016.5 |
| 20260906075038 | 59 | 90 | 2.6 | 2.6 | 0.00 | 0.00 | 0.00 | 60 | 1016.4 |
| 20260906074532 | 59 | 128 | 1.7 | 1.7 | 0.00 | 0.00 | 0.00 | 59 | 1016.1 |
| 20260906074031 | 59 | 245 | 0.9 | 0.9 | 0.00 | 0.00 | 0.00 | 59 | 1016.5 |
| 20260906073526 | 59 | 164 | 0.0 | 0.0 | 0.00 | 0.00 | 0.00 | 57 | 1016.5 |
| 20260906073022 | 59 | 205 | 1.7 | 1.7 | 0.00 | 0.00 | 0.00 | 58 | 1016.2 |
| 20260906072517 | 59 | 215 | 0.0 | 0.0 | 0.00 | 0.00 | 0.00 | 58 | 1016.5 |
| 20260906072013 | 59 | 221 | 0.0 | 0.0 | 0.00 | 0.00 | 0.00 | 57 | 1016.6 |
| 20260906071509 | 59 | 203 | 0.0 | 0.0 | 0.00 | 0.00 | 0.00 | 58 | 1016.4 |
| 20260906071004 | 59 | 226 | 0.0 | 0.0 | 0.00 | 0.00 | 0.00 | 57 | 1016.2 |
| 20260906070501 | 59 | 225 | 0.9 | 0.9 | 0.00 | 0.00 | 0.00 | 57 | 1016.2 |
| 20260906065956 | 60 | 225 | 1.7 | 1.7 | 0.00 | 0.00 | 0.00 | 57 | 1016.1 |
| 20260906065455 | 60 | 190 | 0.9 | 0.9 | 0.00 | 0.00 | 0.00 | 54 | 1016.1 |
| 20260906064951 | 60 | 258 | 1.7 | 1.7 | 0.00 | 0.00 | 0.00 | 56 | 1016.2 |
| 20260906064447 | 60 | 213 | 0.9 | 1.7 | 0.00 | 0.00 | 0.00 | 54 | 1016.1 |
| 20260906063941 | 60 | 216 | 0.0 | 0.9 | 0.00 | 0.00 | 0.00 | 55 | 1016.4 |
| 20260906063437 | 60 | 175 | 0.9 | 0.9 | 0.00 | 0.00 | 0.00 | 56 | 1016.5 |
| 20260906062937 | 60 | 207 | 0.0 | 0.0 | 0.00 | 0.00 | 0.00 | 56 | 1016.0 |
| 20260906062432 | 60 | 219 | 0.0 | 0.0 | 0.00 | 0.00 | 0.00 | 55 | 1016.1 |
| 20260906061927 | 60 | 224 | 0.0 | 0.0 | 0.00 | 0.00 | 0.00 | 55 | 1016.2 |
| 20260906061424 | 60 | 192 | 0.0 | 0.0 | 0.00 | 0.00 | 0.00 | 55 | 1016.1 |
| 20260906060917 | 60 | 215 | 0.0 | 0.0 | 0.00 | 0.00 | 0.00 | 54 | 1016.1 |
| 20260906060415 | 61 | 104 | 0.0 | 0.0 | 0.00 | 0.00 | 0.00 | 54 | 1016.1 |
| 20260906055911 | 61 | 230 | 0.0 | 0.0 | 0.00 | 0.00 | 0.00 | 53 | 1015.9 |
| 20260906055407 | 62 | 210 | 0.0 | 0.9 | 0.00 | 0.00 | 0.00 | 52 | 1016.2 |
| 20260906054902 | 62 | 182 | 2.6 | 4.3 | 0.00 | 0.00 | 0.00 | 52 | 1016.4 |
| 20260906054356 | 63 | 204 | 0.0 | 0.0 | 0.00 | 0.00 | 0.00 | 51 | 1016.0 |
| 20260906053853 | 64 | 217 | 0.0 | 0.0 | 0.00 | 0.00 | 0.00 | 49 | 1016.1 |
| 20260906053348 | 64 | 222 | 1.7 | 1.7 | 0.00 | 0.00 | 0.00 | 48 | 1016.0 |
| 20260906052844 | 64 | 223 | 0.0 | 0.0 | 0.00 | 0.00 | 0.00 | 47 | 1016.2 |
| 20260906052340 | 65 | 217 | 0.0 | 0.9 | 0.00 | 0.00 | 0.00 | 46 | 1015.9 |
| 20260906051837 | 65 | 200 | 0.9 | 0.9 | 0.00 | 0.00 | 0.00 | 44 | 1016.1 |
| 20260906051336 | 64 | 249 | 0.9 | 0.9 | 0.00 | 0.00 | 0.00 | 45 | 1016.1 |
| 20260906050832 | 65 | 223 | 0.0 | 0.0 | 0.00 | 0.00 | 0.00 | 46 | 1016.1 |
| 20260906050327 | 65 | 223 | 0.0 | 0.0 | 0.00 | 0.00 | 0.00 | 46 | 1016.2 |
| 20260906045825 | 66 | 193 | 0.0 | 0.0 | 0.00 | 0.00 | 0.00 | 44 | 1016.1 |
| 20260906045320 | 68 | 209 | 0.0 | 0.0 | 0.00 | 0.00 | 0.00 | 42 | 1016.2 |
| 20260906044817 | 68 | 239 | 0.0 | 0.9 | 0.00 | 0.00 | 0.00 | 41 | 1016.2 |
| 20260906044311 | 68 | 204 | 0.9 | 1.7 | 0.00 | 0.00 | 0.00 | 40 | 1016.0 |
| 20260906043807 | 68 | 206 | 1.7 | 1.7 | 0.00 | 0.00 | 0.00 | 40 | 1016.4 |
| 20260906043303 | 68 | 215 | 0.0 | 0.0 | 0.00 | 0.00 | 0.00 | 40 | 1016.1 |
| 20260906042803 | 69 | 211 | 0.0 | 0.0 | 0.00 | 0.00 | 0.00 | 39 | 1016.1 |
| 20260906042302 | 70 | 194 | 0.9 | 0.9 | 0.00 | 0.00 | 0.00 | 39 | 1016.1 |
| 20260906041757 | 71 | 174 | 1.7 | 1.7 | 0.00 | 0.00 | 0.00 | 37 | 1016.2 |
| 20260906041252 | 71 | 216 | 1.7 | 1.7 | 0.00 | 0.00 | 0.00 | 37 | 1016.1 |
| 20260906040748 | 71 | 192 | 2.6 | 2.6 | 0.00 | 0.00 | 0.00 | 39 | 1016.0 |
| 20260906040243 | 70 | 209 | 0.9 | 1.7 | 0.00 | 0.00 | 0.00 | 41 | 1016.4 |
| 20260906035738 | 69 | 195 | 2.6 | 2.6 | 0.00 | 0.00 | 0.00 | 40 | 1016.4 |
| 20260906035234 | 69 | 215 | 0.0 | 0.0 | 0.00 | 0.00 | 0.00 | 42 | 1016.2 |
| 20260906034734 | 68 | 214 | 0.0 | 0.0 | 0.00 | 0.00 | 0.00 | 42 | 1016.2 |
| 20260906034229 | 69 | 213 | 0.0 | 0.0 | 0.00 | 0.00 | 0.00 | 43 | 1016.2 |
| 20260906033724 | 69 | 214 | 0.0 | 0.0 | 0.00 | 0.00 | 0.00 | 42 | 1016.0 |
| 20260906033224 | 70 | 191 | 1.7 | 1.7 | 0.00 | 0.00 | 0.00 | 41 | 1015.9 |
| 20260906032721 | 70 | 205 | 0.9 | 1.7 | 0.00 | 0.00 | 0.00 | 42 | 1016.1 |
| 20260906032221 | 70 | 206 | 1.7 | 1.7 | 0.00 | 0.00 | 0.00 | 41 | 1015.8 |
| 20260906031716 | 71 | 215 | 0.9 | 0.9 | 0.00 | 0.00 | 0.00 | 42 | 1015.9 |
| 20260906031211 | 72 | 221 | 2.6 | 2.6 | 0.00 | 0.00 | 0.00 | 41 | 1015.7 |
| 20260906030711 | 72 | 216 | 2.6 | 2.6 | 0.00 | 0.00 | 0.00 | 41 | 1015.7 |
| 20260906030206 | 73 | 211 | 1.7 | 1.7 | 0.00 | 0.00 | 0.00 | 39 | 1015.8 |
| 20260906025705 | 74 | 215 | 0.0 | 0.0 | 0.00 | 0.00 | 0.00 | 35 | 1015.7 |
| 20260906025200 | 75 | 212 | 0.0 | 0.0 | 0.00 | 0.00 | 0.00 | 33 | 1015.7 |
| 20260906024700 | 75 | 175 | 1.7 | 1.7 | 0.00 | 0.00 | 0.00 | 33 | 1015.3 |
| 20260906024159 | 75 | 134 | 1.7 | 1.7 | 0.00 | 0.00 | 0.00 | 34 | 1015.3 |
| 20260906023655 | 74 | 153 | 1.7 | 1.7 | 0.00 | 0.00 | 0.00 | 36 | 1015.3 |
| 20260906023155 | 74 | 135 | 0.0 | 0.0 | 0.00 | 0.00 | 0.00 | 37 | 1015.2 |
| 20260906022650 | 75 | 137 | 0.0 | 0.0 | 0.00 | 0.00 | 0.00 | 36 | 1015.3 |
| 20260906022146 | 75 | 177 | 0.0 | 0.0 | 0.00 | 0.00 | 0.00 | 38 | 1015.4 |
| 20260906021641 | 75 | 161 | 0.0 | 0.0 | 0.00 | 0.00 | 0.00 | 38 | 1015.4 |
| 20260906021140 | 76 | 207 | 0.0 | 0.0 | 0.00 | 0.00 | 0.00 | 37 | 1015.4 |
| 20260906020634 | 76 | 181 | 0.0 | 0.0 | 0.00 | 0.00 | 0.00 | 36 | 1015.6 |
| 20260906020129 | 77 | 170 | 0.0 | 0.0 | 0.00 | 0.00 | 0.00 | 36 | 1015.6 |
| 20260906015624 | 77 | 211 | 0.0 | 0.0 | 0.00 | 0.00 | 0.00 | 35 | 1015.6 |
| 20260906015123 | 78 | 214 | 0.0 | 0.0 | 0.00 | 0.00 | 0.00 | 35 | 1015.7 |
| 20260906014622 | 79 | 197 | 0.0 | 0.0 | 0.00 | 0.00 | 0.00 | 33 | 1015.7 |
| 20260906014119 | 79 | 220 | 0.0 | 0.0 | 0.00 | 0.00 | 0.00 | 32 | 1015.8 |
| 20260906013615 | 80 | 221 | 0.0 | 0.0 | 0.00 | 0.00 | 0.00 | 31 | 1015.8 |
| 20260906013110 | 81 | 223 | 0.0 | 0.0 | 0.00 | 0.00 | 0.00 | 30 | 1015.7 |
| 20260906012605 | 82 | 222 | 0.0 | 0.0 | 0.00 | 0.00 | 0.00 | 30 | 1015.8 |
| 20260906012105 | 82 | 212 | 0.0 | 0.0 | 0.00 | 0.00 | 0.00 | 28 | 1015.8 |
| 20260906011601 | 83 | 212 | 0.9 | 0.9 | 0.00 | 0.00 | 0.00 | 28 | 1015.8 |
| 20260906011100 | 83 | 218 | 0.9 | 0.9 | 0.00 | 0.00 | 0.00 | 27 | 1015.7 |
| 20260906010556 | 83 | 215 | 1.7 | 1.7 | 0.00 | 0.00 | 0.00 | 28 | 1015.9 |
| 20260906010052 | 84 | 229 | 2.6 | 4.3 | 0.00 | 0.00 | 0.00 | 26 | 1016.0 |
| 20260906005551 | 83 | 222 | 5.2 | 5.2 | 0.00 | 0.00 | 0.00 | 26 | 1015.8 |
| 20260906005051 | 84 | 229 | 4.3 | 5.2 | 0.00 | 0.00 | 0.00 | 26 | 1016.0 |
| 20260906004550 | 84 | 233 | 3.5 | 4.3 | 0.00 | 0.00 | 0.00 | 28 | 1015.8 |
| 20260906004045 | 84 | 233 | 1.7 | 2.6 | 0.00 | 0.00 | 0.00 | 28 | 1015.9 |
| 20260906003540 | 84 | 196 | 5.2 | 6.1 | 0.00 | 0.00 | 0.00 | 27 | 1015.9 |
| 20260906003037 | 85 | 208 | 4.3 | 5.2 | 0.00 | 0.00 | 0.00 | 27 | 1015.8 |
| 20260906002536 | 85 | 241 | 4.3 | 4.3 | 0.00 | 0.00 | 0.00 | 25 | 1015.7 |
| 20260906002031 | 85 | 224 | 1.7 | 2.6 | 0.00 | 0.00 | 0.00 | 26 | 1015.8 |
| 20260906001527 | 85 | 224 | 3.5 | 4.3 | 0.00 | 0.00 | 0.00 | 26 | 1015.7 |
| 20260906001021 | 85 | 228 | 0.9 | 1.7 | 0.00 | 0.00 | 0.00 | 27 | 1015.8 |
| 20260906000517 | 85 | 215 | 2.6 | 4.3 | 0.00 | 0.00 | 0.00 | 25 | 1016.0 |
| 20260906000012 | 85 | 233 | 3.5 | 4.3 | 0.00 | 0.00 | 0.00 | 26 | 1015.8 |
| 20260905235511 | 85 | 248 | 6.1 | 6.1 | 0.00 | 0.00 | 0.00 | 26 | 1015.7 |
| 20260905235007 | 85 | 242 | 6.1 | 7.0 | 0.00 | 0.00 | 0.00 | 25 | 1016.1 |